TimePST,TemperatureF,Dew PointF,Humidity,Sea Level PressureIn,VisibilityMPH,Wind Direction,Wind SpeedMPH,Gust SpeedMPH,PrecipitationIn,Events,Conditions,WindDirDegrees,DateUTC
12:15 AM,33.8,30.2,87,30.24,10.0,Calm,Calm,-,N/A,,Clear,0,2013-03-09 08:15:00
12:35 AM,35.6,32.0,87,30.25,10.0,Calm,Calm,-,N/A,,Clear,0,2013-03-09 08:35:00
12:55 AM,33.8,30.2,87,30.26,9.0,Calm,Calm,-,N/A,,Clear,0,2013-03-09 08:55:00
1:15 AM,33.8,30.2,87,30.26,10.0,Calm,Calm,-,N/A,,Clear,0,2013-03-09 09:15:00
1:35 AM,33.8,30.2,87,30.27,10.0,Calm,Calm,-,N/A,,Clear,0,2013-03-09 09:35:00
1:55 AM,33.8,30.2,87,30.28,10.0,Calm,Calm,-,N/A,,Clear,0,2013-03-09 09:55:00
2:15 AM,32.0,30.2,93,30.28,10.0,Calm,Calm,-,N/A,,Clear,0,2013-03-09 10:15:00
2:35 AM,32.0,28.4,87,30.28,10.0,Calm,Calm,-,N/A,,Clear,0,2013-03-09 10:35:00
2:55 AM,30.2,26.6,86,30.29,10.0,Calm,Calm,-,N/A,,Clear,0,2013-03-09 10:55:00
3:15 AM,30.2,28.4,93,30.29,10.0,Calm,Calm,-,N/A,,Clear,0,2013-03-09 11:15:00
3:35 AM,30.2,26.6,86,30.30,10.0,Calm,Calm,-,N/A,,Clear,0,2013-03-09 11:35:00
3:55 AM,30.2,28.4,93,30.31,10.0,Calm,Calm,-,N/A,,Clear,0,2013-03-09 11:55:00
4:15 AM,30.2,28.4,93,30.32,10.0,Calm,Calm,-,N/A,,Scattered Clouds,0,2013-03-09 12:15:00
4:35 AM,28.4,26.6,93,30.32,9.0,Calm,Calm,-,N/A,,Partly Cloudy,0,2013-03-09 12:35:00
4:55 AM,32.0,28.4,87,30.33,10.0,Calm,Calm,-,N/A,,Mostly Cloudy,0,2013-03-09 12:55:00
5:15 AM,30.2,28.4,93,30.33,10.0,Calm,Calm,-,N/A,,Overcast,0,2013-03-09 13:15:00
5:35 AM,30.2,26.6,86,30.34,10.0,Calm,Calm,-,N/A,,Mostly Cloudy,0,2013-03-09 13:35:00
5:55 AM,32.0,28.4,87,30.35,1.0,Calm,Calm,-,N/A,,Overcast,0,2013-03-09 13:55:00
6:15 AM,32.0,30.2,93,30.37,0.2,Calm,Calm,-,N/A,,Overcast,0,2013-03-09 14:15:00
6:35 AM,33.8,30.2,87,30.38,1.5,Calm,Calm,-,N/A,,Overcast,0,2013-03-09 14:35:00
6:55 AM,33.8,30.2,87,30.39,0.2,Calm,Calm,-,N/A,,Overcast,0,2013-03-09 14:55:00
7:15 AM,35.6,33.8,93,30.40,0.2,Calm,Calm,-,N/A,,Overcast,0,2013-03-09 15:15:00
7:35 AM,35.6,33.8,93,30.41,0.2,Calm,Calm,-,N/A,,Overcast,0,2013-03-09 15:35:00
7:55 AM,35.6,33.8,93,30.42,0.2,Calm,Calm,-,N/A,,Overcast,0,2013-03-09 15:55:00
8:15 AM,35.6,33.8,93,30.42,0.2,Calm,Calm,-,N/A,,Overcast,0,2013-03-09 16:15:00
8:35 AM,35.6,33.8,93,30.44,0.8,Calm,Calm,-,N/A,,Overcast,0,2013-03-09 16:35:00
8:55 AM,37.4,33.8,87,30.42,1.2,Calm,Calm,-,N/A,,Overcast,0,2013-03-09 16:55:00
9:15 AM,37.4,33.8,87,30.44,1.5,Calm,Calm,-,N/A,,Overcast,0,2013-03-09 17:15:00
9:35 AM,37.4,33.8,87,30.44,3.0,Calm,Calm,-,N/A,,Overcast,0,2013-03-09 17:35:00
9:55 AM,37.4,35.6,93,30.45,3.0,WSW,3.5,-,N/A,,Overcast,240,2013-03-09 17:55:00
10:15 AM,39.2,35.6,87,30.45,3.0,Calm,Calm,-,N/A,,Overcast,0,2013-03-09 18:15:00
10:35 AM,39.2,35.6,87,30.47,2.5,Calm,Calm,-,N/A,,Overcast,0,2013-03-09 18:35:00
10:55 AM,41.0,37.4,87,30.47,3.0,NW,3.5,-,N/A,,Overcast,310,2013-03-09 18:55:00
11:15 AM,42.8,37.4,81,30.47,4.0,WSW,3.5,-,N/A,,Scattered Clouds,240,2013-03-09 19:15:00
11:35 AM,44.6,37.4,76,30.46,5.0,Calm,Calm,-,N/A,,Clear,0,2013-03-09 19:35:00
11:55 AM,46.4,37.4,71,30.46,5.0,WSW,3.5,-,N/A,,Clear,250,2013-03-09 19:55:00
12:15 PM,48.2,39.2,71,30.47,7.0,SW,3.5,-,N/A,,Clear,220,2013-03-09 20:15:00
12:35 PM,48.2,37.4,66,30.46,10.0,Calm,Calm,-,N/A,,Clear,0,2013-03-09 20:35:00
12:55 PM,51.8,39.2,62,30.45,10.0,Calm,Calm,-,N/A,,Clear,0,2013-03-09 20:55:00
1:15 PM,53.6,39.2,58,30.45,10.0,WSW,3.5,-,N/A,,Clear,240,2013-03-09 21:15:00
1:35 PM,53.6,37.4,54,30.45,10.0,Calm,Calm,-,N/A,,Clear,0,2013-03-09 21:35:00
1:55 PM,55.4,35.6,47,30.44,10.0,WSW,3.5,-,N/A,,Clear,240,2013-03-09 21:55:00
2:15 PM,55.4,33.8,44,30.44,10.0,WSW,4.6,-,N/A,,Clear,250,2013-03-09 22:15:00
2:35 PM,55.4,37.4,51,30.44,10.0,Calm,Calm,-,N/A,,Clear,0,2013-03-09 22:35:00
2:55 PM,57.2,37.4,48,30.44,10.0,West,3.5,-,N/A,,Clear,280,2013-03-09 22:55:00
3:15 PM,57.2,37.4,48,30.43,10.0,WSW,4.6,-,N/A,,Clear,250,2013-03-09 23:15:00
3:35 PM,57.2,35.6,44,30.43,10.0,West,6.9,-,N/A,,Clear,270,2013-03-09 23:35:00
3:55 PM,57.2,35.6,44,30.44,10.0,Calm,Calm,-,N/A,,Clear,0,2013-03-09 23:55:00
4:15 PM,57.2,35.6,44,30.44,10.0,WSW,5.8,-,N/A,,Clear,240,2013-03-10 00:15:00
4:35 PM,57.2,35.6,44,30.43,10.0,West,5.8,-,N/A,,Clear,280,2013-03-10 00:35:00
4:55 PM,55.4,37.4,51,30.44,10.0,West,5.8,-,N/A,,Clear,270,2013-03-10 00:55:00
5:15 PM,55.4,37.4,51,30.45,10.0,West,5.8,-,N/A,,Clear,280,2013-03-10 01:15:00
5:35 PM,53.6,37.4,54,30.45,10.0,West,4.6,-,N/A,,Clear,270,2013-03-10 01:35:00
5:55 PM,53.6,37.4,54,30.45,10.0,Calm,Calm,-,N/A,,Clear,0,2013-03-10 01:55:00
6:15 PM,51.8,37.4,58,30.47,10.0,Calm,Calm,-,N/A,,Clear,0,2013-03-10 02:15:00
6:35 PM,51.8,35.6,54,30.48,10.0,West,3.5,-,N/A,,Clear,280,2013-03-10 02:35:00
6:55 PM,50.0,35.6,58,30.48,10.0,WNW,3.5,-,N/A,,Clear,300,2013-03-10 02:55:00
7:15 PM,48.2,35.6,62,30.49,10.0,NW,4.6,-,N/A,,Clear,310,2013-03-10 03:15:00
7:35 PM,46.4,33.8,62,30.50,10.0,NW,4.6,-,N/A,,Clear,320,2013-03-10 03:35:00
7:55 PM,46.4,33.8,62,30.51,10.0,North,-9999.0,-,N/A,,Clear,0,2013-03-10 03:55:00
8:15 PM,46.4,35.6,66,30.51,10.0,Calm,Calm,-,N/A,,Clear,0,2013-03-10 04:15:00
8:35 PM,44.6,35.6,71,30.51,10.0,NE,3.5,-,N/A,,Partly Cloudy,50,2013-03-10 04:35:00
8:55 PM,42.8,35.6,76,30.51,10.0,NE,3.5,-,N/A,,Clear,40,2013-03-10 04:55:00
9:15 PM,42.8,33.8,70,30.50,10.0,Calm,Calm,-,N/A,,Clear,0,2013-03-10 05:15:00
9:35 PM,39.2,33.8,81,30.50,10.0,Calm,Calm,-,N/A,,Clear,0,2013-03-10 05:35:00
9:55 PM,39.2,33.8,81,30.51,10.0,Calm,Calm,-,N/A,,Clear,0,2013-03-10 05:55:00
10:15 PM,39.2,33.8,81,30.51,10.0,Calm,Calm,-,N/A,,Clear,0,2013-03-10 06:15:00
10:35 PM,39.2,33.8,81,30.51,10.0,Calm,Calm,-,N/A,,Clear,0,2013-03-10 06:35:00
10:55 PM,37.4,33.8,87,30.51,10.0,Calm,Calm,-,N/A,,Clear,0,2013-03-10 06:55:00
11:15 PM,37.4,32.0,81,30.51,10.0,Calm,Calm,-,N/A,,Clear,0,2013-03-10 07:15:00
11:35 PM,35.6,32.0,87,30.51,10.0,Calm,Calm,-,N/A,,Clear,0,2013-03-10 07:35:00
11:55 PM,35.6,32.0,87,30.51,10.0,Calm,Calm,-,N/A,,Clear,0,2013-03-10 07:55:00